Regional Weather Roundup
Issued by NWS Upton, NY

Current Version | Previous Version | Text Only | Print | Product List | Glossary On
Versions: 1 2 3 4 5 6 7 8 9 10 11 12 13 14 15 16 17 18 19 20 21 22 23 24 25 26 27 28 29 30 31 32 33 34 35 36 37 38 39 40 41 42 43 44 45 46 47 48 49 50
000
ASUS41 KOKX 161805
RWROKX

REGIONAL WEATHER ROUNDUP
NATIONAL WEATHER SERVICE NEW YORK NY
200 PM EDT TUE SEP 16 2014

NOTE: "FAIR" INDICATES FEW OR NO CLOUDS BELOW 12,000 FEET WITH NO
SIGNIFICANT WEATHER AND/OR OBSTRUCTIONS TO VISIBILITY.

NYZ071-072-176-178-NJZ106-104-161900-
NEW YORK CITY METRO AREA


CITY           SKY/WX    TMP DP  RH WIND       PRES   REMARKS
CENTRAL PARK   PTSUNNY   70  58  65 E5        30.01F
LAGUARDIA APRT MOSUNNY   66  57  72 NE5       29.97F
KENNEDY INTL   PTSUNNY   63  59  87 VRB3      29.99F
NEWARK/LIBERTY PTSUNNY   69  58  67 CALM      29.98F
BRNX BOT. GARD   N/A     70  55  60 W2        29.98F
TETERBORO      PTSUNNY   71  55  56 CALM      29.96F
$$

NYZ177-179-078>081-161900-
LONG ISLAND NEW YORK

CITY           SKY/WX    TMP DP  RH WIND       PRES   REMARKS
FARMINGDALE    CLOUDY    64  58  80 CALM      29.98F
ISLIP          CLOUDY    62  60  93 CALM      29.97S
SHIRLEY        CLOUDY    61  59  93 CALM      29.99F
WESTHAMPTON    LGT RAIN  61  59  93 S3        30.00F
MONTAUK POINT    N/A     64  56  75 CALM      29.99F
$$

NYZ052-065-067-161900-
HUDSON VALLEY

CITY           SKY/WX    TMP DP  RH WIND       PRES   REMARKS
WHITE PLAINS   MOSUNNY   68  54  60 NW8       29.97F
NEWBURGH       PTSUNNY   66  55  68 W6        29.99F
MONTGOMERY       N/A     67  53  61 MISG      29.98S
POUGHKEEPSIE   CLOUDY    68  53  58 N5        29.98S
ALBANY         PTSUNNY   64  52  64 W8        29.99F
$$

NJZ001-105-106-008-010-013-015-019>022-104-161900-
NEW JERSEY

CITY           SKY/WX    TMP DP  RH WIND       PRES   REMARKS
NEWARK/LIBERTY PTSUNNY   69  58  67 CALM      29.98F
TETERBORO      PTSUNNY   71  55  56 CALM      29.96F
CALDWELL       PTSUNNY   68  52  56 VRB3      29.98F
MORRISTOWN     PTSUNNY   70  55  60 N6        29.98F
SOMERVILLE     PTSUNNY   73  52  47 VRB6      29.96F
LINDEN         CLOUDY    72  60  67 SE3       29.99F
SUSSEX         CLOUDY    69  53  56 NW6       29.99F
ANDOVER          N/A     68  52  56 NE3       29.99F
TRENTON        CLOUDY    69  55  60 VRB5      29.98F
MILLVILLE      PTSUNNY   73  55  53 N10       29.97S
ATLANTIC CITY  SUNNY     75  54  47 NW16      29.96S
WRIGHTSTOWN    SUNNY     70  59  68 N7        29.96F
TOMS RIVER     CLOUDY    64  59  82 N8        29.99S
BELMAR         CLOUDY    63  55  77 N7        29.98F
$$

PAZ047>061-062-071-161900-
EASTERN PENNSYLVANIA

CITY           SKY/WX    TMP DP  RH WIND       PRES   REMARKS
PHILADELPHIA   PTSUNNY   72  53  51 NW8       29.98F
ALLENTOWN      CLOUDY    68  51  54 N8        29.99F
SCRANTON       CLOUDY    64  48  56 NW10      30.02S
$$

CTZ002-004>006-009-010-012-RIZ004-006-007-MAZ004-011-015-161900-
SOUTHERN NEW ENGLAND
 IN CT

CITY           SKY/WX    TMP DP  RH WIND       PRES   REMARKS
BRADLEY INTL   PTSUNNY   66  54  65 VRB3      29.97F
HARTFORD       CLOUDY    65  56  72 SE7       29.97F
DANBURY        PTSUNNY   67  53  61 VRB6      29.99F
WTRBRY/OXFORD  PTSUNNY   66  54  63 NW7       29.99F
BRIDGEPORT     CLOUDY    66  56  70 SW8       29.98F
MERIDEN        CLOUDY    66  55  67 CALM      29.97F
NEW HAVEN      PTSUNNY   66  56  70 VRB3      29.98F
CHESTER        MOCLDY    64  55  72 SW6       29.99F
GROTON         CLOUDY    64  57  78 CALM      29.97F
WILLIMANTIC    PTSUNNY   67  55  65 CALM      29.98F

 IN RI

CITY           SKY/WX    TMP DP  RH WIND       PRES   REMARKS
PROVIDENCE     PTSUNNY   69  51  52 S10       29.97F
BLOCK ISLAND   CLOUDY    66  50  55 S6        29.98F
WESTERLY       CLOUDY    67  52  58 SE8       29.98F

 IN MA

CITY           SKY/WX    TMP DP  RH WIND       PRES   REMARKS
BOSTON         PTSUNNY   65  52  62 NW10      29.97F
WORCESTER      CLOUDY    60  52  74 W9        29.98F
WESTFIELD      CLOUDY    65  55  70 CALM      29.97F
PROVINCETOWN   CLOUDY    66  52  59 S6        29.97F
NANTUCKET      MOSUNNY   66  50  56 SE12      29.98F
$$

ANZ330-335-338-340-345-350-353-355-161900-
COASTAL MARINE OBSERVATIONS


STATION/POSITION TIME  SKY/WX   TEMP    WIND        PRES    VSBY  WAVE
                                AIR SEA DIR/SP/G                  HT/PER
                 (UTC)          (F)     (DEG/KT/KT) (MB)    (MI)  (FT/S)
NY HARB ENTRANCE NOT AVBL
4S FIRE IS       NOT AVBL
23SW MTP         1800                                 N/A           2/ 8
HUDSON CANYON    1800            67 74   30/  2/  4 1014.5          2/ 9
EXECUTION ROCKS  1800            65 71  140/  2/  4   N/A
WESTERN LI SOUND 1800            64     210/  2/  4   N/A           0
CENTRAL LI SOUND 1700            63 71  230/  2/  4   N/A           1
EASTERN LI SOUND 1700            64 68   80/  4/  4   N/A
ROBBINS REEF     1800            64      30/  1/  2 1014.1
$$


>>>>>>>>>>>>>>>>>>>>>>>>>>>> KEY <<<<<<<<<<<<<<<<<<<<<<<<<<<
>                                                          <
>     SKY/WX - SKY CONDITION/PRESENT WEATHER               <
>     TMP    - TEMPERATURE IN FAHRENHEIT                   <
>     DP     - DEWPOINT IN FAHRENHEIT                      <
>     RH     - RELATIVE HUMIDITY IN PERCENT                <
>     WIND   - DIRECTION AND SPEED IN MPH                  <
>     PRES   - MEAN SEA LEVEL PRESSURE IN INCHES OF HG     <
>     WCI    - WIND CHILL INDEX                            <
>     VSB    - VISIBILITY IN MILES                         <
>     HX     - HEAT INDEX                                  <
>     TC     - TEMPERATURE IN CELSIUS                      <
>     VRB    - VARIABLE WIND DIRECTION                     <
>                                                          <
>>>>>>>>>>>>>>>>>>>>>>>>>>>> KEY <<<<<<<<<<<<<<<<<<<<<<<<<<<




USA.gov is the U.S. government's official web portal to all federal, state and local government web resources and services.